Regional Weather Roundup
Issued by NWS

Home | Current Version | Previous Version | Graphics & Text | Print | Product List | Glossary On
Versions: 1 2 3 4 5 6 7 8 9 10 11 12 13 14 15 16 17 18 19 20 21 22 23 24 25 26 27 28 29 30 31 32 33 34 35 36 37 38 39 40 41 42 43 44 45 46 47 48 49 50
817
ASUS43 KDTX 270701
RWRMI
MICHIGAN HOURLY REGIONAL WEATHER ROUNDUP
NATIONAL WEATHER SERVICE DETROIT/PONTIAC MI
300 AM EDT WED JUL 27 2016

NOTE: "FAIR" INDICATES FEW OR NO CLOUDS BELOW 12,000 FEET WITH NO
SIGNIFICANT WEATHER AND/OR OBSTRUCTION TO VISIBILITY.

MIZ047>049-052>055-059>063-066>070-074>076-081>083-270800-
SOUTHEAST LOWER MICHIGAN

CITY           SKY/WX    TMP DP  RH WIND       PRES   REMARKS
ADRIAN         CLEAR     65  63  93 CALM      30.02R
ALMA           CLEAR     63  62  97 CALM      29.99S
ANN ARBOR      CLEAR     62  62 100 SW3       30.00S
BAD AXE        CLEAR     61  58  90 CALM      29.98S
CARO           CLEAR     61  60  97 CALM      29.98R
DETROIT CITY   CLEAR     74  62  66 W5        29.99S
DETROIT        PTCLDY    69  61  75 S5        30.00S
FLINT          CLEAR     66  62  87 CALM      29.99F
GROSSE ILE     CLEAR     72  65  80 W3        29.98S
HOWELL         CLEAR     66  63  89 CALM      30.01S

CITY           SKY/WX    TMP DP  RH WIND       PRES   REMARKS
JACKSON        CLEAR     66  65  96 CALM      30.01S
LAMBERTVILLE   CLEAR     65  63  91 CALM      30.00S
LANSING        CLEAR     69  63  81 CALM      30.00F
LAPEER         FAIR      62  60  95 CALM      30.00S
MASON          CLEAR     64  62  92 CALM      30.01S
MONROE         CLEAR     65  63  94 W10       29.99S
MT. CLEMENS    CLEAR     72  63  72 W7        29.97S
PONTIAC        CLEAR     70  64  81 NW3       30.00R
PORT HURON     CLEAR     61  61 100 CALM      29.98S
TRI CITIES     CLEAR     68  63  84 W6        29.98S
MIDLAND        FAIR      64  62  94 CALM      29.97S
TROY           CLEAR     74  59  61 W5        30.01S
SAGINAW HB     CLEAR     68  61  77 SW3       29.97S
$$
MIZ043>046-050>051-056>058-064>065-071>073-077>080-270800-
SOUTHWEST LOWER MICHIGAN

CITY           SKY/WX    TMP DP  RH WIND       PRES   REMARKS
BATTLE CREEK   CLEAR     64  64 100 CALM      30.01S
BENTON HARBOR  CLEAR     62  60  93 CALM      30.00F FOG
BIG RAPIDS     CLEAR     63  63 100 CALM      29.99S
COLDWATER      CLEAR     64  64  99 CALM      30.01S
FREMONT        FAIR      64  64 100 CALM      29.99S
HOLLAND        CLEAR     63  61  93 CALM      30.00F
GRAND RAPIDS   CLEAR     68  62  81 CALM      30.00F
IONIA          FAIR      65  60  81 W6        29.99S
KALAMAZOO      CLEAR     66  62  87 CALM      30.01S
LUDINGTON      CLEAR     72  67  83 SW9       29.96S
MARSHALL       CLEAR     65  65  98 CALM      30.00S
MOUNT PLEASANT PTCLDY    66  62  88 CALM      29.98S
MUSKEGON         N/A     69  66  90 CALM      29.99S
SOUTH HAVEN    CLEAR     61  60  99 CALM      30.00S
$$
MIZ016>042-270800-
NORTHERN LOWER MICHIGAN

CITY           SKY/WX    TMP DP  RH WIND       PRES   REMARKS
ALPENA         PTCLDY    70  62  76 CALM      29.94S
BEAVER ISLAND  PTCLDY    70  67  90 W3        29.93S
BELLAIRE       PTCLDY    72  60  65 CALM      29.94S
CADILLAC       CLEAR     66  59  76 SW5       29.99R
CHARLEVOIX     PTCLDY    75  63  66 SW8       29.95S
FRANKFORT      PTCLDY    74  65  75 SW3       29.95S
GAYLORD        CLEAR     70  58  65 SW6       29.96S
GRAYLING       CLEAR     70  58  66 W5        29.98R
HARBOR SPRINGS MOCLDY    72  64  77 W3        29.93S
HOUGHTON LAKE  CLEAR     71  60  68 SW5       29.98F
MANISTEE       CLEAR     63  62  97 E3        29.96S
OSCODA         CLEAR     69  60  73 S3        29.93F
PELLSTON       CLEAR     73  63  70 W10       29.92S
ROGERS CITY    CLEAR     68  65  91 S5        29.94S
TRAVERSE CITY  PTCLDY    75  60  59 SW8       29.93R
$$
MIZ007>008-015-270800-
EASTERN UPPER MICHIGAN

CITY           SKY/WX    TMP DP  RH WIND       PRES   REMARKS
KINROSS        PTCLDY    67  65  93 SW6       29.92R
MACKINAC ISLAN LGT RAIN  70  70  98 W6        29.92R
S. S. MARIE    PTCLDY    65  63  93 CALM      29.91R
$$
MIZ004>006-011>014-085-270800-
CENTRAL UPPER MICHIGAN

CITY           SKY/WX    TMP DP  RH WIND       PRES   REMARKS
MANISTIQUE     CLEAR     65  64  97 CALM      29.93S
ESCANABA       CLEAR     70  64  83 NW5       29.92S
MENOMINEE      CLEAR    N/A N/A N/A CALM      29.95S
SAWYER-GWINN   CLEAR     65  64  96 CALM      29.96S
$$
MIZ001>003-009>011-084-270800-
WESTERN UPPER MICHIGAN

CITY           SKY/WX    TMP DP  RH WIND       PRES   REMARKS
IRON MOUNTAIN  PTCLDY    65  62  90 CALM      29.97S
HOUGHTON       CLEAR     64  62  93 NW7       29.95S
IRONWOOD       CLOUDY    70  68  94 CALM      29.97S
$$

ABBREVIATIONS USED IN REMARKS
   TC - TEMPERATURE IN CELSIUS
  WCI - WIND CHILL INDEX
   HX - HEAT INDEX
  VSB - VISIBILITY





USA.gov is the U.S. government's official web portal to all federal, state and local government web resources and services.